HYLAS 2

Last updated on Wed Sep 09 2026 00:02:59 GMT+0000 (Coordinated Universal Time)

1 38741U 12043B 26251.43979314 -.00000181 00000+0 00000+0 0 9998 2 38741 2.6349 79.9644 0003421 155.9626 243.1073 1.00523154 51616
UTC large
Height (km)
Speed (km/s)
/
Latitude / Longitude
Inclination (degrees)
Orbital Period (minutes)
Azimuth
Elevation
Range (km)
Doppler Factor

Next 0 passes for location: London (51.5072 / 0.1276)

No passes found over London.
HYLAS 2